Precipitable_Water
0.58 0.61 0.63 0.64 0.64 0.63 0.62 0.63 0.63 0.63 0.62 0.62 0.61 0.60 0.59 0.58 0.57 0.56 0.56 0.55 0.56 0.55 0.54 0.52 0.52 0.51 0.49 0.48 0.47 0.46 0.45 0.33 0.26 0.22 0.20 0.20 0.21 0.24 0.25 0.26 0.31 0.31 0.34 0.29 0.24 0.21 0.18 0.21 0.20 0.22 0.21 0.24 0.26 0.23 0.28 0.27 0.25 0.21 0.14 0.12 0.10 0.11 0.11 0.14 0.13 0.14 0.19 0.19 0.20 0.21 0.21 0.20 0.18 0.44 0.59 0.71 0.60 0.60 0.65 0.68 0.76 0.88 0.84 0.91 0.96 1.04 1.14 1.18
0.54 0.58 0.62 0.64 0.64 0.64 0.64 0.64 0.65 0.65 0.64 0.63 0.63 0.62 0.61 0.59 0.58 0.56 0.55 0.54 0.54 0.54 0.53 0.52 0.51 0.50 0.49 0.48 0.47 0.46 0.40 0.30 0.22 0.25 0.24 0.30 0.29 0.28 0.27 0.26 0.33 0.33 0.33 0.24 0.21 0.18 0.17 0.18 0.20 0.20 0.19 0.19 0.29 0.22 0.28 0.22 0.25 0.16 0.14 0.12 0.10 0.12 0.13 0.17 0.18 0.18 0.19 0.20 0.21 0.22 0.22 0.20 0.19 0.22 0.50 0.43 0.48 0.53 0.53 0.60 0.67 0.70 0.81 0.90 0.96 1.04 1.07 1.11
0.52 0.55 0.58 0.62 0.63 0.64 0.65 0.65 0.66 0.66 0.66 0.65 0.64 0.63 0.62 0.60 0.59 0.58 0.55 0.54 0.54 0.53 0.53 0.52 0.51 0.50 0.48 0.48 0.46 0.46 0.36 0.24 0.27 0.25 0.33 0.44 0.36 0.31 0.29 0.28 0.35 0.39 0.32 0.25 0.25 0.20 0.19 0.19 0.20 0.20 0.20 0.19 0.24 0.21 0.23 0.21 0.22 0.19 0.14 0.11 0.12 0.15 0.16 0.17 0.18 0.19 0.21 0.22 0.21 0.21 0.21 0.20 0.20 0.20 0.26 0.37 0.41 0.49 0.40 0.39 0.53 0.55 0.60 0.71 0.86 0.99 1.04 1.05
0.50 0.51 0.54 0.58 0.62 0.63 0.64 0.66 0.67 0.67 0.67 0.66 0.65 0.65 0.63 0.60 0.59 0.58 0.56 0.55 0.53 0.53 0.53 0.52 0.50 0.48 0.48 0.46 0.47 0.43 0.33 0.26 0.21 0.32 0.43 0.47 0.44 0.34 0.30 0.29 0.36 0.39 0.34 0.29 0.28 0.22 0.21 0.23 0.21 0.20 0.20 0.18 0.21 0.23 0.19 0.21 0.18 0.19 0.15 0.12 0.13 0.16 0.14 0.17 0.19 0.20 0.21 0.23 0.21 0.21 0.22 0.20 0.20 0.21 0.29 0.37 0.33 0.37 0.42 0.44 0.37 0.43 0.55 0.67 0.84 0.94 1.01 0.99
0.48 0.49 0.51 0.54 0.58 0.61 0.63 0.65 0.66 0.67 0.67 0.67 0.66 0.65 0.64 0.63 0.61 0.60 0.57 0.55 0.53 0.52 0.52 0.50 0.48 0.48 0.46 0.46 0.44 0.42 0.27 0.17 0.30 0.44 0.46 0.55 0.53 0.40 0.33 0.32 0.36 0.37 0.36 0.28 0.27 0.24 0.20 0.21 0.21 0.20 0.20 0.16 0.20 0.20 0.20 0.21 0.20 0.18 0.15 0.16 0.16 0.17 0.15 0.18 0.19 0.20 0.21 0.22 0.21 0.21 0.20 0.19 0.21 0.22 0.29 0.27 0.22 0.20 0.32 0.38 0.47 0.53 0.66 0.67 0.77 0.91 0.99 1.00
0.45 0.47 0.48 0.49 0.52 0.57 0.60 0.63 0.65 0.66 0.67 0.67 0.67 0.66 0.65 0.64 0.63 0.62 0.60 0.56 0.54 0.53 0.51 0.50 0.50 0.47 0.46 0.45 0.44 0.38 0.23 0.10 0.39 0.45 0.58 0.61 0.58 0.45 0.42 0.37 0.38 0.38 0.33 0.26 0.23 0.22 0.19 0.19 0.19 0.17 0.17 0.17 0.17 0.16 0.19 0.22 0.22 0.14 0.17 0.17 0.17 0.17 0.16 0.18 0.19 0.20 0.20 0.20 0.20 0.19 0.21 0.21 0.19 0.19 0.26 0.27 0.22 0.25 0.38 0.48 0.58 0.65 0.72 0.81 0.84 0.88 0.91 0.97
0.43 0.44 0.46 0.47 0.48 0.52 0.56 0.60 0.63 0.65 0.67 0.67 0.67 0.67 0.66 0.65 0.63 0.62 0.63 0.59 0.55 0.53 0.52 0.52 0.50 0.48 0.45 0.44 0.45 0.29 0.18 0.20 0.37 0.46 0.60 0.66 0.61 0.50 0.48 0.47 0.42 0.36 0.30 0.25 0.21 0.18 0.17 0.18 0.18 0.17 0.17 0.17 0.19 0.18 0.20 0.20 0.21 0.18 0.15 0.18 0.17 0.18 0.17 0.19 0.19 0.19 0.19 0.19 0.19 0.20 0.21 0.19 0.19 0.17 0.38 0.34 0.40 0.45 0.48 0.56 0.61 0.69 0.77 0.84 0.78 0.85 0.84 0.90
0.42 0.43 0.43 0.44 0.46 0.47 0.51 0.55 0.60 0.63 0.65 0.67 0.67 0.67 0.66 0.65 0.64 0.62 0.63 0.62 0.57 0.54 0.53 0.51 0.51 0.47 0.46 0.37 0.25 0.19 0.19 0.18 0.34 0.48 0.60 0.58 0.58 0.50 0.48 0.45 0.39 0.34 0.28 0.24 0.21 0.17 0.18 0.18 0.17 0.21 0.18 0.15 0.18 0.17 0.19 0.18 0.19 0.16 0.15 0.18 0.18 0.18 0.18 0.19 0.19 0.18 0.18 0.18 0.19 0.19 0.18 0.18 0.19 0.18 0.31 0.30 0.41 0.48 0.52 0.62 0.67 0.71 0.75 0.83 0.82 0.83 0.89 0.92
0.42 0.42 0.42 0.43 0.44 0.46 0.47 0.50 0.54 0.58 0.62 0.65 0.67 0.67 0.66 0.65 0.63 0.62 0.61 0.63 0.61 0.58 0.53 0.52 0.49 0.49 0.48 0.36 0.25 0.14 0.12 0.35 0.44 0.53 0.55 0.53 0.51 0.45 0.39 0.31 0.36 0.31 0.28 0.27 0.23 0.19 0.18 0.19 0.21 0.21 0.16 0.17 0.21 0.18 0.19 0.17 0.15 0.17 0.17 0.18 0.18 0.17 0.17 0.18 0.18 0.18 0.18 0.18 0.18 0.17 0.17 0.18 0.19 0.37 0.28 0.41 0.46 0.56 0.62 0.65 0.68 0.70 0.71 0.75 0.79 0.85 0.87 0.90
0.42 0.41 0.41 0.42 0.42 0.43 0.45 0.46 0.49 0.54 0.59 0.62 0.65 0.66 0.65 0.65 0.63 0.63 0.62 0.63 0.64 0.60 0.56 0.52 0.50 0.47 0.39 0.29 0.24 0.11 0.24 0.45 0.53 0.56 0.52 0.49 0.47 0.41 0.34 0.31 0.31 0.30 0.25 0.24 0.21 0.19 0.20 0.21 0.23 0.26 0.25 0.21 0.22 0.19 0.19 0.17 0.16 0.17 0.17 0.17 0.17 0.18 0.18 0.19 0.17 0.18 0.18 0.17 0.17 0.15 0.15 0.16 0.25 0.27 0.19 0.44 0.55 0.60 0.59 0.58 0.67 0.66 0.65 0.74 0.78 0.85 0.92 0.92
0.42 0.41 0.41 0.41 0.41 0.42 0.43 0.44 0.46 0.49 0.54 0.59 0.62 0.64 0.64 0.64 0.63 0.62 0.62 0.62 0.63 0.62 0.60 0.57 0.55 0.45 0.33 0.30 0.16 0.11 0.31 0.44 0.56 0.55 0.51 0.45 0.40 0.31 0.26 0.28 0.31 0.28 0.25 0.21 0.19 0.23 0.25 0.28 0.32 0.30 0.25 0.21 0.21 0.19 0.19 0.19 0.19 0.19 0.18 0.18 0.18 0.18 0.19 0.19 0.18 0.17 0.17 0.16 0.17 0.16 0.16 0.17 0.27 0.26 0.18 0.36 0.54 0.56 0.47 0.53 0.62 0.66 0.68 0.74 0.81 0.84 0.92 0.98
0.42 0.41 0.41 0.40 0.40 0.41 0.42 0.43 0.44 0.45 0.48 0.53 0.58 0.61 0.62 0.62 0.62 0.62 0.61 0.61 0.62 0.64 0.61 0.53 0.60 0.51 0.37 0.25 0.16 0.17 0.40 0.47 0.56 0.52 0.47 0.40 0.31 0.28 0.27 0.29 0.29 0.26 0.22 0.18 0.20 0.29 0.31 0.35 0.34 0.28 0.19 0.26 0.19 0.21 0.19 0.22 0.20 0.20 0.19 0.15 0.16 0.17 0.17 0.18 0.17 0.17 0.17 0.16 0.17 0.17 0.15 0.14 0.20 0.17 0.26 0.43 0.54 0.55 0.51 0.52 0.60 0.65 0.70 0.75 0.83 0.89 0.93 0.97
0.42 0.41 0.41 0.40 0.40 0.40 0.41 0.42 0.43 0.44 0.45 0.48 0.53 0.57 0.58 0.60 0.61 0.61 0.60 0.60 0.63 0.64 0.61 0.59 0.58 0.50 0.34 0.15 0.16 0.23 0.30 0.41 0.45 0.46 0.43 0.37 0.29 0.28 0.28 0.30 0.29 0.27 0.22 0.20 0.26 0.31 0.32 0.36 0.34 0.26 0.28 0.24 0.21 0.16 0.21 0.22 0.20 0.20 0.19 0.17 0.15 0.15 0.15 0.17 0.17 0.17 0.16 0.16 0.17 0.16 0.11 0.12 0.14 0.17 0.37 0.48 0.50 0.54 0.51 0.51 0.58 0.63 0.69 0.75 0.83 0.88 0.94 1.00
0.42 0.42 0.41 0.40 0.40 0.40 0.41 0.42 0.43 0.44 0.44 0.44 0.47 0.50 0.53 0.56 0.58 0.59 0.60 0.59 0.62 0.64 0.64 0.62 0.58 0.48 0.34 0.17 0.18 0.30 0.37 0.43 0.44 0.40 0.38 0.36 0.24 0.20 0.24 0.26 0.28 0.26 0.25 0.28 0.30 0.32 0.31 0.34 0.33 0.29 0.29 0.23 0.20 0.24 0.20 0.20 0.20 0.16 0.18 0.18 0.14 0.13 0.13 0.16 0.16 0.16 0.15 0.17 0.17 0.16 0.11 0.12 0.14 0.16 0.41 0.50 0.50 0.44 0.40 0.48 0.55 0.62 0.67 0.75 0.83 0.87 0.90 0.96
0.41 0.41 0.41 0.41 0.40 0.39 0.41 0.42 0.43 0.44 0.44 0.44 0.44 0.46 0.49 0.52 0.54 0.55 0.58 0.59 0.62 0.62 0.60 0.63 0.58 0.43 0.27 0.20 0.32 0.42 0.51 0.49 0.37 0.36 0.39 0.31 0.22 0.17 0.19 0.22 0.22 0.23 0.29 0.32 0.30 0.33 0.34 0.34 0.30 0.25 0.22 0.25 0.24 0.19 0.17 0.17 0.18 0.17 0.14 0.13 0.15 0.13 0.14 0.16 0.19 0.17 0.14 0.16 0.17 0.15 0.12 0.12 0.14 0.18 0.42 0.53 0.52 0.49 0.39 0.46 0.53 0.59 0.66 0.75 0.82 0.85 0.90 0.93
0.40 0.40 0.40 0.40 0.40 0.39 0.40 0.42 0.43 0.44 0.44 0.44 0.44 0.42 0.44 0.46 0.49 0.52 0.54 0.57 0.61 0.62 0.65 0.52 0.49 0.42 0.27 0.15 0.25 0.49 0.43 0.34 0.35 0.43 0.44 0.32 0.25 0.19 0.21 0.21 0.24 0.27 0.31 0.31 0.32 0.33 0.33 0.32 0.25 0.24 0.21 0.21 0.19 0.17 0.16 0.15 0.15 0.17 0.14 0.13 0.13 0.14 0.15 0.16 0.17 0.21 0.21 0.19 0.18 0.15 0.12 0.13 0.14 0.20 0.43 0.53 0.50 0.50 0.45 0.47 0.54 0.59 0.67 0.75 0.80 0.85 0.89 0.90
0.39 0.39 0.40 0.39 0.39 0.39 0.39 0.41 0.43 0.44 0.44 0.44 0.44 0.44 0.43 0.44 0.47 0.51 0.58 0.62 0.64 0.70 0.60 0.44 0.51 0.48 0.17 0.36 0.43 0.29 0.33 0.38 0.48 0.43 0.40 0.34 0.28 0.27 0.26 0.24 0.26 0.29 0.32 0.33 0.34 0.34 0.32 0.26 0.25 0.22 0.22 0.18 0.19 0.17 0.13 0.12 0.13 0.13 0.17 0.13 0.16 0.14 0.17 0.15 0.22 0.23 0.23 0.21 0.18 0.18 0.14 0.13 0.15 0.24 0.47 0.57 0.56 0.52 0.48 0.50 0.56 0.62 0.69 0.77 0.83 0.86 0.86 0.86
0.39 0.39 0.39 0.39 0.39 0.39 0.39 0.40 0.43 0.44 0.44 0.43 0.42 0.43 0.46 0.54 0.58 0.63 0.65 0.71 0.75 0.71 0.63 0.65 0.56 0.35 0.18 0.30 0.24 0.29 0.40 0.39 0.38 0.42 0.40 0.34 0.32 0.28 0.28 0.27 0.29 0.29 0.29 0.27 0.30 0.26 0.27 0.21 0.22 0.16 0.17 0.17 0.17 0.15 0.12 0.10 0.11 0.12 0.14 0.14 0.15 0.17 0.19 0.19 0.18 0.23 0.22 0.22 0.19 0.17 0.15 0.13 0.15 0.29 0.44 0.50 0.57 0.55 0.53 0.55 0.60 0.66 0.73 0.78 0.83 0.84 0.85 0.86
0.40 0.39 0.39 0.39 0.39 0.39 0.38 0.39 0.42 0.44 0.45 0.44 0.47 0.58 0.66 0.69 0.72 0.73 0.63 0.68 0.55 0.43 0.27 0.32 0.30 0.15 0.13 0.21 0.32 0.38 0.39 0.42 0.41 0.38 0.35 0.30 0.30 0.29 0.30 0.30 0.28 0.26 0.22 0.21 0.22 0.22 0.22 0.19 0.19 0.16 0.13 0.14 0.13 0.14 0.13 0.14 0.16 0.16 0.17 0.16 0.17 0.16 0.19 0.20 0.22 0.25 0.23 0.20 0.18 0.16 0.14 0.13 0.16 0.29 0.45 0.53 0.59 0.56 0.59 0.65 0.68 0.72 0.77 0.81 0.82 0.82 0.83 0.84
0.40 0.40 0.40 0.40 0.39 0.39 0.38 0.39 0.40 0.43 0.46 0.41 0.45 0.53 0.59 0.45 0.45 0.45 0.58 0.57 0.44 0.41 0.39 0.35 0.35 0.31 0.29 0.31 0.36 0.42 0.46 0.46 0.34 0.33 0.36 0.33 0.27 0.26 0.27 0.27 0.24 0.23 0.20 0.17 0.20 0.20 0.22 0.15 0.13 0.12 0.13 0.14 0.15 0.15 0.15 0.17 0.18 0.19 0.20 0.20 0.20 0.20 0.22 0.23 0.23 0.24 0.26 0.18 0.17 0.17 0.17 0.16 0.19 0.30 0.40 0.49 0.59 0.61 0.61 0.61 0.65 0.71 0.76 0.79 0.80 0.79 0.80 0.83
0.38 0.39 0.40 0.41 0.40 0.39 0.39 0.39 0.39 0.42 0.47 0.44 0.47 0.41 0.30 0.31 0.27 0.25 0.35 0.37 0.41 0.42 0.38 0.36 0.35 0.32 0.28 0.36 0.41 0.40 0.35 0.36 0.36 0.30 0.33 0.38 0.30 0.25 0.23 0.23 0.20 0.17 0.18 0.19 0.19 0.25 0.20 0.14 0.13 0.14 0.15 0.15 0.16 0.17 0.18 0.19 0.21 0.21 0.21 0.21 0.20 0.22 0.21 0.22 0.22 0.24 0.26 0.17 0.18 0.19 0.18 0.19 0.22 0.34 0.43 0.53 0.57 0.54 0.56 0.60 0.66 0.70 0.75 0.78 0.77 0.75 0.76 0.83
0.37 0.38 0.40 0.40 0.41 0.40 0.39 0.39 0.38 0.41 0.46 0.46 0.45 0.38 0.40 0.39 0.43 0.46 0.40 0.23 0.31 0.38 0.39 0.36 0.40 0.33 0.37 0.40 0.45 0.46 0.43 0.34 0.29 0.33 0.34 0.34 0.28 0.21 0.21 0.20 0.17 0.14 0.18 0.18 0.18 0.18 0.15 0.12 0.14 0.17 0.19 0.19 0.18 0.19 0.21 0.20 0.21 0.24 0.22 0.22 0.21 0.22 0.23 0.23 0.23 0.27 0.28 0.21 0.18 0.20 0.18 0.20 0.27 0.36 0.46 0.49 0.52 0.59 0.66 0.66 0.66 0.68 0.71 0.74 0.74 0.72 0.74 0.79
0.38 0.38 0.38 0.40 0.40 0.41 0.40 0.40 0.39 0.40 0.40 0.38 0.38 0.42 0.42 0.46 0.52 0.54 0.47 0.36 0.26 0.35 0.33 0.33 0.31 0.30 0.30 0.42 0.45 0.48 0.35 0.31 0.26 0.29 0.31 0.30 0.26 0.22 0.22 0.18 0.17 0.17 0.18 0.17 0.14 0.14 0.12 0.13 0.17 0.20 0.21 0.20 0.20 0.21 0.21 0.21 0.24 0.24 0.23 0.21 0.20 0.24 0.20 0.18 0.23 0.26 0.27 0.24 0.19 0.19 0.18 0.21 0.30 0.38 0.45 0.56 0.65 0.64 0.70 0.74 0.78 0.82 0.75 0.70 0.69 0.70 0.70 0.72
0.39 0.39 0.38 0.37 0.39 0.38 0.39 0.39 0.41 0.38 0.36 0.37 0.38 0.40 0.46 0.51 0.56 0.55 0.44 0.30 0.23 0.27 0.31 0.33 0.33 0.33 0.29 0.30 0.42 0.40 0.35 0.34 0.33 0.28 0.35 0.28 0.24 0.25 0.22 0.19 0.18 0.18 0.17 0.17 0.17 0.16 0.15 0.19 0.24 0.23 0.23 0.22 0.20 0.22 0.21 0.21 0.21 0.25 0.24 0.22 0.22 0.23 0.22 0.21 0.22 0.25 0.28 0.26 0.23 0.21 0.19 0.20 0.25 0.29 0.36 0.49 0.59 0.62 0.68 0.74 0.79 0.83 0.84 0.86 0.84 0.79 0.76 0.73
0.39 0.39 0.39 0.38 0.37 0.37 0.34 0.37 0.32 0.36 0.36 0.35 0.36 0.45 0.49 0.52 0.60 0.59 0.42 0.32 0.30 0.25 0.42 0.37 0.39 0.34 0.35 0.48 0.48 0.36 0.37 0.37 0.35 0.36 0.35 0.30 0.25 0.23 0.21 0.23 0.21 0.17 0.18 0.20 0.20 0.18 0.18 0.22 0.25 0.23 0.23 0.23 0.21 0.20 0.22 0.21 0.20 0.21 0.23 0.23 0.23 0.24 0.23 0.25 0.26 0.23 0.22 0.22 0.24 0.20 0.15 0.16 0.21 0.24 0.30 0.41 0.44 0.49 0.63 0.64 0.68 0.75 0.78 0.81 0.74 0.74 0.75 0.78
0.37 0.39 0.39 0.39 0.38 0.35 0.34 0.24 0.36 0.31 0.29 0.27 0.37 0.47 0.47 0.55 0.64 0.59 0.41 0.24 0.16 0.23 0.37 0.23 0.42 0.27 0.44 0.33 0.40 0.38 0.39 0.29 0.37 0.38 0.36 0.33 0.33 0.25 0.23 0.20 0.21 0.17 0.19 0.21 0.20 0.21 0.21 0.25 0.24 0.22 0.22 0.22 0.22 0.21 0.22 0.22 0.19 0.19 0.21 0.25 0.25 0.25 0.25 0.25 0.24 0.21 0.18 0.17 0.24 0.25 0.15 0.15 0.22 0.22 0.26 0.34 0.39 0.43 0.54 0.57 0.64 0.71 0.74 0.76 0.75 0.75 0.72 0.74
0.36 0.37 0.39 0.39 0.38 0.38 0.20 0.16 0.29 0.27 0.21 0.27 0.45 0.50 0.48 0.57 0.66 0.52 0.28 0.20 0.15 0.34 0.31 0.37 0.34 0.32 0.37 0.36 0.36 0.36 0.21 0.24 0.38 0.40 0.35 0.37 0.30 0.31 0.21 0.19 0.21 0.22 0.23 0.24 0.20 0.19 0.23 0.23 0.24 0.25 0.23 0.22 0.21 0.20 0.23 0.22 0.20 0.18 0.25 0.25 0.25 0.24 0.23 0.24 0.24 0.22 0.21 0.25 0.27 0.27 0.22 0.18 0.19 0.23 0.28 0.31 0.34 0.39 0.44 0.51 0.58 0.65 0.70 0.72 0.73 0.74 0.73 0.75
0.36 0.37 0.38 0.38 0.38 0.38 0.27 0.27 0.24 0.19 0.19 0.35 0.49 0.50 0.51 0.60 0.57 0.52 0.25 0.11 0.10 0.38 0.32 0.37 0.33 0.44 0.36 0.38 0.37 0.28 0.28 0.34 0.27 0.33 0.37 0.38 0.35 0.28 0.23 0.21 0.19 0.20 0.23 0.23 0.16 0.22 0.23 0.22 0.23 0.22 0.23 0.22 0.21 0.23 0.26 0.26 0.21 0.21 0.25 0.26 0.25 0.24 0.25 0.26 0.25 0.23 0.24 0.21 0.20 0.23 0.26 0.19 0.20 0.25 0.30 0.31 0.28 0.32 0.35 0.42 0.50 0.59 0.65 0.69 0.71 0.71 0.72 0.76
0.37 0.38 0.38 0.38 0.37 0.36 0.36 0.29 0.26 0.20 0.34 0.41 0.43 0.48 0.53 0.59 0.49 0.30 0.19 0.11 0.31 0.35 0.48 0.36 0.46 0.38 0.34 0.36 0.32 0.32 0.32 0.35 0.27 0.32 0.37 0.38 0.38 0.31 0.23 0.24 0.24 0.24 0.25 0.23 0.19 0.23 0.25 0.24 0.25 0.25 0.22 0.20 0.23 0.25 0.28 0.28 0.21 0.24 0.28 0.28 0.27 0.27 0.28 0.27 0.25 0.24 0.24 0.20 0.18 0.21 0.26 0.19 0.20 0.25 0.27 0.30 0.29 0.29 0.31 0.37 0.44 0.53 0.60 0.66 0.68 0.69 0.73 0.77
0.37 0.37 0.39 0.38 0.35 0.31 0.29 0.35 0.25 0.24 0.30 0.38 0.42 0.50 0.52 0.46 0.39 0.21 0.14 0.09 0.35 0.24 0.36 0.42 0.40 0.37 0.35 0.30 0.29 0.33 0.31 0.34 0.34 0.36 0.36 0.34 0.35 0.35 0.31 0.32 0.28 0.26 0.25 0.27 0.24 0.25 0.26 0.29 0.30 0.26 0.23 0.24 0.25 0.28 0.31 0.29 0.27 0.29 0.27 0.24 0.23 0.24 0.25 0.27 0.26 0.25 0.23 0.17 0.19 0.23 0.27 0.22 0.18 0.24 0.26 0.25 0.27 0.30 0.32 0.34 0.41 0.49 0.58 0.65 0.68 0.69 0.70 0.73
0.35 0.36 0.37 0.40 0.27 0.29 0.27 0.17 0.19 0.27 0.35 0.39 0.42 0.47 0.41 0.32 0.21 0.16 0.10 0.10 0.30 0.30 0.38 0.37 0.36 0.40 0.34 0.30 0.27 0.34 0.32 0.35 0.34 0.35 0.32 0.36 0.34 0.34 0.31 0.28 0.31 0.27 0.26 0.25 0.23 0.25 0.26 0.27 0.26 0.28 0.29 0.28 0.28 0.28 0.31 0.31 0.29 0.26 0.23 0.21 0.21 0.20 0.23 0.23 0.23 0.25 0.19 0.17 0.22 0.26 0.25 0.25 0.17 0.23 0.28 0.32 0.35 0.35 0.34 0.32 0.33 0.39 0.48 0.56 0.63 0.68 0.71 0.74
0.34 0.35 0.36 0.36 0.36 0.37 0.19 0.13 0.24 0.40 0.42 0.38 0.40 0.34 0.27 0.16 0.23 0.13 0.10 0.32 0.15 0.30 0.30 0.32 0.37 0.36 0.35 0.35 0.32 0.32 0.30 0.33 0.35 0.33 0.31 0.31 0.31 0.29 0.29 0.26 0.27 0.22 0.21 0.21 0.20 0.24 0.22 0.23 0.26 0.27 0.31 0.28 0.26 0.26 0.27 0.28 0.28 0.25 0.22 0.21 0.16 0.16 0.17 0.15 0.19 0.17 0.17 0.17 0.24 0.27 0.27 0.22 0.20 0.24 0.32 0.36 0.36 0.37 0.37 0.36 0.35 0.36 0.41 0.52 0.61 0.67 0.72 0.75
0.34 0.34 0.35 0.34 0.36 0.30 0.27 0.22 0.22 0.29 0.35 0.34 0.38 0.32 0.18 0.12 0.09 0.14 0.13 0.18 0.18 0.33 0.32 0.36 0.34 0.33 0.34 0.33 0.31 0.33 0.34 0.29 0.34 0.33 0.33 0.33 0.30 0.30 0.32 0.31 0.32 0.28 0.21 0.24 0.21 0.20 0.20 0.24 0.25 0.25 0.27 0.29 0.28 0.23 0.23 0.22 0.24 0.23 0.20 0.19 0.16 0.14 0.14 0.13 0.16 0.18 0.19 0.22 0.27 0.26 0.29 0.21 0.25 0.28 0.36 0.36 0.40 0.43 0.43 0.44 0.43 0.41 0.40 0.45 0.58 0.66 0.71 0.76
0.34 0.36 0.31 0.32 0.31 0.29 0.27 0.29 0.26 0.28 0.31 0.33 0.35 0.24 0.17 0.10 0.09 0.21 0.13 0.14 0.15 0.30 0.32 0.31 0.31 0.32 0.33 0.30 0.32 0.33 0.29 0.32 0.33 0.33 0.33 0.30 0.30 0.28 0.29 0.32 0.32 0.30 0.28 0.27 0.22 0.21 0.17 0.17 0.21 0.23 0.22 0.28 0.27 0.27 0.26 0.24 0.23 0.22 0.23 0.21 0.19 0.17 0.15 0.13 0.15 0.14 0.15 0.18 0.24 0.28 0.22 0.20 0.20 0.23 0.38 0.43 0.45 0.47 0.48 0.47 0.48 0.47 0.47 0.49 0.58 0.67 0.71 0.74
0.32 0.35 0.36 0.33 0.31 0.30 0.30 0.30 0.29 0.27 0.29 0.28 0.29 0.20 0.12 0.10 0.12 0.12 0.13 0.16 0.21 0.22 0.25 0.31 0.30 0.30 0.30 0.33 0.35 0.35 0.33 0.30 0.33 0.32 0.31 0.29 0.28 0.28 0.28 0.29 0.32 0.32 0.31 0.24 0.26 0.24 0.21 0.20 0.25 0.27 0.27 0.28 0.25 0.28 0.28 0.25 0.23 0.24 0.24 0.24 0.20 0.18 0.22 0.16 0.18 0.18 0.18 0.18 0.19 0.22 0.21 0.26 0.25 0.39 0.45 0.49 0.49 0.48 0.49 0.48 0.48 0.47 0.49 0.52 0.56 0.64 0.71 0.76
0.28 0.31 0.36 0.29 0.31 0.37 0.36 0.31 0.29 0.27 0.20 0.24 0.22 0.17 0.12 0.13 0.11 0.14 0.12 0.23 0.22 0.18 0.20 0.23 0.27 0.27 0.29 0.31 0.36 0.34 0.38 0.31 0.33 0.31 0.30 0.30 0.31 0.29 0.32 0.32 0.31 0.32 0.28 0.24 0.26 0.21 0.23 0.20 0.25 0.28 0.27 0.26 0.27 0.28 0.27 0.26 0.19 0.23 0.22 0.19 0.20 0.26 0.23 0.20 0.21 0.23 0.22 0.20 0.18 0.25 0.23 0.28 0.37 0.38 0.44 0.48 0.46 0.46 0.49 0.50 0.50 0.50 0.54 0.56 0.58 0.65 0.72 0.79
0.22 0.30 0.26 0.37 0.44 0.49 0.47 0.38 0.29 0.22 0.20 0.20 0.17 0.14 0.16 0.16 0.16 0.21 0.24 0.22 0.24 0.21 0.18 0.14 0.20 0.23 0.26 0.28 0.32 0.34 0.36 0.35 0.33 0.31 0.28 0.32 0.29 0.31 0.31 0.32 0.35 0.33 0.32 0.29 0.27 0.28 0.21 0.21 0.26 0.25 0.24 0.27 0.29 0.28 0.28 0.28 0.26 0.23 0.19 0.21 0.27 0.29 0.27 0.21 0.16 0.19 0.18 0.15 0.16 0.21 0.19 0.22 0.22 0.19 0.35 0.40 0.41 0.43 0.48 0.51 0.54 0.56 0.59 0.57 0.59 0.61 0.62 0.65
0.23 0.27 0.27 0.37 0.49 0.56 0.53 0.43 0.28 0.21 0.18 0.17 0.13 0.13 0.22 0.16 0.20 0.18 0.26 0.25 0.24 0.24 0.18 0.14 0.15 0.24 0.23 0.26 0.29 0.33 0.38 0.32 0.32 0.32 0.28 0.32 0.29 0.38 0.33 0.31 0.34 0.33 0.34 0.34 0.28 0.28 0.27 0.20 0.24 0.26 0.26 0.27 0.29 0.28 0.25 0.27 0.27 0.23 0.20 0.29 0.20 0.18 0.16 0.21 0.19 0.15 0.15 0.14 0.15 0.18 0.20 0.22 0.23 0.23 0.28 0.31 0.35 0.41 0.46 0.52 0.55 0.56 0.60 0.62 0.62 0.61 0.62 0.62
0.28 0.24 0.16 0.35 0.57 0.58 0.54 0.44 0.25 0.17 0.17 0.13 0.13 0.11 0.18 0.19 0.24 0.23 0.25 0.23 0.23 0.21 0.15 0.15 0.14 0.23 0.26 0.24 0.28 0.33 0.36 0.33 0.36 0.32 0.29 0.31 0.27 0.37 0.33 0.33 0.31 0.34 0.33 0.34 0.30 0.29 0.29 0.21 0.22 0.27 0.26 0.27 0.27 0.26 0.20 0.22 0.24 0.24 0.25 0.23 0.25 0.22 0.20 0.18 0.18 0.20 0.18 0.16 0.15 0.17 0.20 0.18 0.25 0.26 0.30 0.31 0.36 0.39 0.45 0.49 0.52 0.54 0.58 0.60 0.60 0.59 0.60 0.61
0.24 0.15 0.17 0.44 0.55 0.55 0.52 0.39 0.23 0.17 0.15 0.10 0.12 0.13 0.23 0.17 0.19 0.24 0.26 0.24 0.21 0.19 0.18 0.17 0.22 0.21 0.26 0.26 0.27 0.28 0.33 0.33 0.35 0.36 0.32 0.33 0.31 0.37 0.34 0.36 0.32 0.32 0.34 0.33 0.32 0.34 0.27 0.28 0.19 0.25 0.28 0.26 0.22 0.24 0.22 0.22 0.20 0.21 0.21 0.20 0.21 0.22 0.27 0.24 0.24 0.21 0.18 0.16 0.16 0.15 0.15 0.18 0.25 0.32 0.33 0.34 0.36 0.42 0.45 0.48 0.51 0.52 0.55 0.56 0.57 0.57 0.59 0.60
0.31 0.17 0.22 0.49 0.51 0.47 0.43 0.34 0.20 0.14 0.12 0.19 0.18 0.15 0.19 0.17 0.20 0.22 0.23 0.28 0.24 0.27 0.22 0.21 0.22 0.22 0.27 0.26 0.25 0.29 0.31 0.32 0.32 0.33 0.35 0.34 0.33 0.29 0.37 0.37 0.36 0.32 0.34 0.32 0.31 0.32 0.27 0.26 0.21 0.24 0.24 0.23 0.23 0.27 0.26 0.25 0.23 0.22 0.21 0.21 0.21 0.19 0.19 0.17 0.17 0.24 0.21 0.18 0.16 0.15 0.14 0.20 0.29 0.37 0.36 0.37 0.40 0.40 0.48 0.51 0.52 0.55 0.56 0.57 0.58 0.61 0.63 0.62
0.23 0.15 0.20 0.52 0.52 0.44 0.33 0.20 0.21 0.25 0.18 0.14 0.13 0.17 0.17 0.22 0.17 0.17 0.19 0.23 0.23 0.21 0.28 0.25 0.25 0.24 0.27 0.28 0.28 0.27 0.28 0.29 0.31 0.29 0.34 0.33 0.37 0.34 0.38 0.42 0.40 0.39 0.33 0.28 0.29 0.35 0.32 0.28 0.24 0.22 0.23 0.24 0.26 0.28 0.30 0.29 0.27 0.26 0.25 0.23 0.25 0.23 0.21 0.18 0.15 0.18 0.21 0.21 0.21 0.20 0.16 0.20 0.34 0.40 0.39 0.39 0.40 0.41 0.47 0.54 0.54 0.57 0.60 0.61 0.63 0.66 0.70 0.72
0.24 0.21 0.40 0.49 0.57 0.44 0.30 0.20 0.25 0.21 0.17 0.21 0.26 0.24 0.23 0.24 0.20 0.26 0.20 0.23 0.20 0.24 0.23 0.23 0.24 0.23 0.27 0.28 0.28 0.26 0.27 0.26 0.29 0.28 0.31 0.34 0.37 0.40 0.41 0.43 0.43 0.39 0.38 0.32 0.32 0.35 0.36 0.27 0.24 0.24 0.26 0.28 0.29 0.30 0.29 0.30 0.28 0.25 0.25 0.27 0.25 0.22 0.22 0.20 0.19 0.21 0.19 0.20 0.18 0.18 0.15 0.21 0.33 0.42 0.41 0.40 0.43 0.43 0.48 0.54 0.56 0.59 0.61 0.63 0.64 0.67 0.69 0.70
0.28 0.27 0.32 0.50 0.59 0.54 0.30 0.17 0.18 0.20 0.20 0.25 0.23 0.21 0.28 0.27 0.27 0.24 0.21 0.24 0.22 0.23 0.21 0.22 0.25 0.27 0.27 0.32 0.31 0.27 0.29 0.23 0.30 0.30 0.31 0.36 0.36 0.44 0.44 0.43 0.43 0.40 0.38 0.34 0.29 0.34 0.26 0.28 0.25 0.22 0.21 0.23 0.24 0.27 0.26 0.27 0.27 0.25 0.24 0.25 0.27 0.27 0.26 0.25 0.23 0.25 0.18 0.20 0.19 0.16 0.14 0.20 0.32 0.42 0.43 0.43 0.44 0.44 0.48 0.55 0.59 0.58 0.63 0.66 0.67 0.68 0.69 0.71
0.29 0.37 0.35 0.42 0.56 0.51 0.33 0.34 0.28 0.24 0.21 0.22 0.22 0.20 0.25 0.28 0.31 0.28 0.28 0.26 0.27 0.25 0.24 0.22 0.27 0.30 0.28 0.33 0.32 0.32 0.31 0.28 0.27 0.32 0.34 0.36 0.36 0.44 0.45 0.44 0.45 0.42 0.45 0.44 0.38 0.36 0.29 0.28 0.25 0.21 0.18 0.17 0.16 0.16 0.18 0.20 0.22 0.25 0.26 0.25 0.26 0.25 0.24 0.23 0.19 0.21 0.17 0.20 0.20 0.17 0.17 0.25 0.35 0.39 0.39 0.40 0.44 0.47 0.53 0.59 0.63 0.66 0.66 0.65 0.67 0.67 0.67 0.65
0.20 0.17 0.33 0.35 0.41 0.44 0.47 0.48 0.38 0.32 0.26 0.22 0.21 0.25 0.28 0.28 0.29 0.30 0.30 0.28 0.30 0.28 0.27 0.27 0.29 0.31 0.30 0.30 0.29 0.29 0.29 0.32 0.29 0.31 0.32 0.32 0.36 0.39 0.43 0.45 0.45 0.44 0.44 0.44 0.42 0.38 0.31 0.32 0.28 0.25 0.23 0.21 0.22 0.24 0.27 0.27 0.25 0.22 0.24 0.24 0.24 0.25 0.26 0.24 0.23 0.20 0.18 0.21 0.19 0.20 0.21 0.24 0.28 0.32 0.35 0.38 0.42 0.44 0.50 0.58 0.61 0.63 0.64 0.64 0.64 0.63 0.63 0.64
0.29 0.22 0.26 0.24 0.37 0.40 0.45 0.48 0.40 0.36 0.30 0.31 0.23 0.30 0.27 0.27 0.29 0.28 0.33 0.27 0.31 0.29 0.28 0.27 0.27 0.25 0.27 0.28 0.28 0.28 0.31 0.30 0.32 0.31 0.32 0.32 0.35 0.37 0.42 0.42 0.43 0.47 0.49 0.43 0.44 0.39 0.35 0.31 0.31 0.28 0.27 0.27 0.28 0.27 0.28 0.27 0.24 0.25 0.24 0.24 0.25 0.24 0.24 0.23 0.21 0.20 0.24 0.22 0.18 0.24 0.27 0.23 0.26 0.31 0.35 0.38 0.42 0.46 0.51 0.55 0.58 0.60 0.60 0.59 0.60 0.60 0.60 0.60
0.19 0.26 0.33 0.38 0.29 0.29 0.39 0.41 0.45 0.41 0.39 0.36 0.31 0.35 0.31 0.29 0.29 0.26 0.31 0.33 0.34 0.33 0.27 0.28 0.28 0.28 0.29 0.28 0.29 0.26 0.28 0.29 0.31 0.29 0.33 0.34 0.34 0.36 0.35 0.38 0.37 0.41 0.45 0.43 0.44 0.37 0.35 0.31 0.35 0.33 0.30 0.31 0.31 0.30 0.30 0.29 0.28 0.28 0.27 0.26 0.25 0.26 0.24 0.22 0.22 0.24 0.24 0.21 0.19 0.25 0.27 0.24 0.28 0.32 0.37 0.39 0.42 0.45 0.50 0.53 0.56 0.58 0.59 0.59 0.59 0.57 0.57 0.57
0.30 0.31 0.32 0.40 0.30 0.36 0.42 0.46 0.49 0.45 0.40 0.40 0.37 0.36 0.33 0.32 0.30 0.32 0.32 0.31 0.32 0.32 0.31 0.26 0.26 0.29 0.29 0.31 0.30 0.26 0.28 0.25 0.26 0.31 0.31 0.32 0.32 0.32 0.30 0.32 0.35 0.37 0.39 0.40 0.41 0.41 0.38 0.34 0.35 0.35 0.32 0.31 0.31 0.31 0.31 0.29 0.29 0.29 0.28 0.28 0.28 0.27 0.27 0.26 0.25 0.26 0.24 0.24 0.26 0.28 0.28 0.28 0.32 0.35 0.37 0.41 0.45 0.48 0.52 0.55 0.57 0.56 0.57 0.58 0.57 0.56 0.55 0.55
0.23 0.26 0.27 0.36 0.36 0.35 0.40 0.45 0.46 0.44 0.39 0.44 0.35 0.36 0.35 0.33 0.31 0.33 0.34 0.33 0.29 0.30 0.34 0.28 0.31 0.30 0.31 0.31 0.30 0.27 0.29 0.30 0.30 0.28 0.32 0.31 0.31 0.31 0.30 0.30 0.30 0.33 0.35 0.35 0.37 0.40 0.36 0.33 0.37 0.37 0.33 0.32 0.35 0.36 0.35 0.33 0.31 0.30 0.31 0.30 0.29 0.29 0.29 0.29 0.27 0.26 0.27 0.26 0.28 0.28 0.28 0.29 0.36 0.40 0.40 0.44 0.46 0.49 0.52 0.52 0.54 0.56 0.57 0.56 0.55 0.54 0.53 0.53
0.35 0.37 0.36 0.29 0.28 0.33 0.38 0.43 0.43 0.41 0.39 0.42 0.38 0.39 0.37 0.35 0.33 0.35 0.32 0.34 0.33 0.31 0.32 0.29 0.32 0.33 0.33 0.32 0.31 0.30 0.32 0.32 0.32 0.32 0.33 0.32 0.28 0.33 0.30 0.31 0.33 0.29 0.30 0.31 0.33 0.34 0.35 0.33 0.36 0.34 0.29 0.29 0.34 0.36 0.36 0.37 0.36 0.32 0.30 0.30 0.30 0.29 0.27 0.29 0.27 0.29 0.25 0.23 0.25 0.26 0.25 0.27 0.36 0.40 0.41 0.42 0.44 0.46 0.47 0.50 0.53 0.54 0.56 0.55 0.54 0.54 0.53 0.53
0.39 0.40 0.39 0.32 0.23 0.30 0.30 0.37 0.41 0.39 0.35 0.42 0.42 0.41 0.39 0.38 0.38 0.37 0.32 0.35 0.35 0.35 0.35 0.34 0.33 0.31 0.32 0.33 0.32 0.33 0.36 0.36 0.35 0.37 0.37 0.37 0.36 0.35 0.36 0.35 0.34 0.31 0.29 0.28 0.32 0.29 0.31 0.31 0.30 0.30 0.26 0.26 0.31 0.33 0.32 0.30 0.29 0.25 0.27 0.30 0.31 0.30 0.31 0.31 0.31 0.32 0.30 0.29 0.25 0.21 0.23 0.32 0.36 0.39 0.37 0.39 0.41 0.43 0.46 0.48 0.50 0.53 0.54 0.55 0.54 0.55 0.56 0.56
Wind_Speed
18 18 18 17 17 17 17 17 17 17 17 17 17 17 18 18 18 18 18 18 18 18 18 18 18 18 18 18 18 18 18 19 19 19 19 19 18 19 19 18 18 20 19 18 18 18 18 18 17 17 16 16 16 16 16 16 16 14 13 14 14 14 14 14 14 13 12 12 12 11 9 9 9 9 10 9 9 9 9 9 9 10 10 11 10 9 11 11
18 18 18 17 17 17 17 17 17 17 17 17 17 17 17 17 18 18 18 18 18 18 18 18 18 18 18 18 18 18 18 18 19 19 19 18 17 18 18 18 17 19 19 19 19 18 18 19 18 17 16 16 16 16 16 17 16 15 14 14 15 15 15 15 14 14 13 13 13 12 11 10 11 11 12 11 11 11 9 9 9 9 9 10 10 11 12 12
18 18 18 17 17 17 17 17 17 17 17 17 17 17 17 17 17 17 18 18 18 18 18 18 17 17 17 17 17 17 17 17 17 18 17 16 17 17 17 18 17 18 18 19 19 18 19 19 18 17 17 17 17 16 16 16 17 16 15 15 16 16 15 15 15 16 15 14 14 13 12 12 12 11 12 12 12 12 12 12 11 11 11 11 11 12 13 13
18 18 18 17 17 17 16 16 16 17 17 17 16 16 17 17 17 17 17 17 18 18 17 17 17 17 17 17 17 16 16 16 16 16 16 15 15 16 16 17 17 18 18 18 18 18 18 18 18 17 17 17 17 16 17 17 17 16 15 15 16 15 14 16 17 17 17 15 15 14 12 13 13 11 11 12 11 14 15 15 14 13 13 12 12 13 13 13
18 18 18 18 17 17 16 16 16 16 16 17 16 16 16 16 16 16 17 17 17 17 17 17 17 17 16 17 16 16 15 14 15 16 15 15 15 15 15 16 17 17 17 17 18 18 18 18 17 17 17 17 17 16 17 18 17 16 16 16 16 15 15 16 16 16 16 16 16 15 13 14 13 11 12 13 13 15 16 16 15 14 14 13 13 13 13 13
17 17 18 18 18 17 17 16 16 16 17 17 16 17 17 17 17 16 16 17 17 17 17 17 16 16 16 16 15 15 14 14 15 15 15 15 15 15 15 15 16 17 17 17 18 18 18 18 17 17 17 17 17 17 18 18 17 17 16 16 17 16 16 16 15 15 15 16 16 16 15 14 13 12 13 13 15 16 16 15 14 13 13 12 12 12 12 12
17 17 17 18 18 18 17 17 17 16 17 17 17 17 17 17 17 17 17 17 17 17 17 16 16 16 16 15 15 14 15 16 16 15 15 14 14 15 15 15 16 17 17 17 17 17 17 17 17 18 17 17 18 18 19 18 17 17 16 16 17 17 17 17 16 16 16 17 18 17 16 16 15 14 14 14 15 16 15 14 13 13 12 12 12 12 12 11
17 17 17 17 18 18 18 17 17 17 17 17 17 17 17 17 17 17 17 17 17 16 16 16 15 15 15 15 15 14 15 16 16 15 14 14 14 14 15 15 15 16 17 17 17 17 17 17 18 18 17 18 18 18 18 17 17 17 17 17 17 17 17 18 17 18 18 18 18 17 17 18 17 15 14 14 15 14 13 13 13 12 11 12 12 12 11 11
17 17 17 17 17 17 17 17 17 17 17 17 17 17 17 17 17 17 17 17 17 16 16 16 15 15 14 14 14 14 15 15 15 14 13 13 14 14 15 15 15 16 16 17 17 16 16 17 18 18 18 18 17 18 17 16 17 18 18 17 17 17 18 17 18 18 18 18 17 16 18 19 17 15 15 15 14 13 12 12 12 11 11 12 12 12 11 11
16 16 17 17 17 17 17 17 17 17 17 17 17 17 17 17 17 17 17 16 16 16 16 15 15 15 14 14 13 14 15 14 13 13 13 13 13 14 15 15 15 15 15 16 16 16 16 17 18 17 16 16 16 17 17 16 17 17 17 18 18 18 17 16 17 18 17 17 17 17 17 17 15 15 16 15 14 13 12 11 12 11 11 11 11 11 11 10
16 16 16 16 16 16 16 17 17 17 16 16 16 17 17 17 17 17 16 16 16 16 15 15 15 14 14 14 13 14 14 13 12 12 12 13 13 14 15 15 15 15 15 15 16 17 16 16 16 15 15 16 16 16 17 17 16 16 16 17 18 16 16 16 17 17 16 17 18 17 16 14 14 15 16 15 14 14 12 11 12 12 11 11 11 11 10 10
16 16 16 15 15 16 16 16 16 16 16 16 16 16 16 16 16 16 16 16 16 15 15 15 14 14 14 14 15 16 14 13 12 12 12 12 12 13 14 14 15 14 15 14 16 17 16 16 15 14 15 15 15 15 16 16 16 16 15 15 16 13 15 16 15 16 15 16 17 16 15 15 15 16 15 14 14 13 12 12 12 12 11 11 11 10 9 9
15 15 15 15 15 15 15 15 16 16 16 16 16 16 16 16 16 16 16 15 15 15 15 15 14 14 14 15 16 15 14 14 13 13 12 12 12 12 12 13 14 14 14 15 15 16 16 16 14 14 15 15 15 15 15 15 15 15 14 14 15 13 14 16 14 15 15 16 16 15 16 17 17 17 15 14 14 13 12 12 12 11 12 12 11 11 9 8
15 15 15 15 14 15 15 15 15 15 15 16 15 15 15 15 15 16 15 15 15 15 15 14 14 14 14 15 15 14 14 14 13 13 12 11 11 10 11 12 12 13 14 14 14 15 15 15 14 14 15 15 15 15 14 14 14 14 14 14 14 14 15 16 15 15 15 16 16 15 17 17 17 17 16 15 15 14 13 13 12 11 12 13 12 11 10 9
15 15 15 15 14 14 14 14 14 15 15 15 15 15 15 15 15 15 15 15 15 14 14 14 14 14 13 15 14 13 13 12 13 13 12 11 10 9 10 11 12 13 14 14 13 13 13 13 13 13 14 14 14 14 14 13 13 13 14 14 13 14 15 16 16 15 15 15 15 16 17 17 17 17 16 16 15 14 13 13 13 12 13 13 12 11 10 9
16 15 15 15 15 14 14 14 14 14 14 14 14 15 15 15 15 15 15 15 14 14 13 13 14 13 12 13 12 11 12 12 12 12 11 11 10 9 9 10 11 12 13 13 13 13 12 12 13 13 13 13 12 12 12 12 12 12 12 13 13 13 13 14 13 14 14 14 14 15 15 15 15 16 16 16 15 13 12 12 13 13 14 13 12 11 11 10
16 15 15 15 15 14 14 14 14 14 14 14 14 14 14 15 14 14 14 14 14 14 13 13 13 13 13 12 11 11 11 10 10 10 11 11 11 9 9 10 10 12 12 12 12 12 12 11 12 13 12 12 11 11 11 12 12 12 11 12 13 12 12 12 12 12 12 12 14 14 14 15 14 12 14 15 15 13 12 13 13 13 13 12 11 11 11 10
16 15 15 15 15 14 14 14 14 14 13 13 13 13 14 13 13 13 13 13 12 12 13 13 12 12 12 12 12 11 10 9 10 10 11 11 11 10 9 10 10 11 10 10 11 11 11 11 10 11 11 11 11 10 11 13 13 12 11 11 12 11 11 11 12 12 11 12 14 12 13 15 13 11 13 13 14 13 12 13 13 14 13 12 12 12 11 10
16 16 15 15 15 14 14 14 13 13 13 13 13 12 12 12 12 12 11 11 11 11 12 13 13 12 12 12 12 11 11 10 10 10 11 11 11 11 10 10 10 10 10 10 11 11 10 10 10 11 11 12 12 12 13 14 12 12 12 11 11 11 11 12 12 12 11 11 13 13 13 13 12 12 13 13 13 12 12 12 13 13 13 12 13 13 12 11
16 16 16 15 15 14 14 14 13 13 13 12 12 12 11 11 11 11 12 12 13 13 13 14 15 15 14 14 13 11 11 10 10 10 11 11 11 11 11 10 9 9 10 10 11 11 10 10 11 13 13 14 14 13 13 13 11 10 10 10 11 10 11 12 11 12 10 10 12 13 12 12 12 13 13 12 11 11 12 12 12 12 13 14 14 13 12 11
17 16 16 16 15 15 14 14 14 13 12 12 12 11 11 10 10 11 12 14 14 15 15 15 16 17 16 15 13 11 10 10 10 10 11 11 11 11 11 10 9 9 10 11 10 10 9 10 12 14 14 14 14 13 12 11 10 10 10 10 10 10 11 11 10 10 9 9 11 11 11 11 12 12 11 11 11 12 13 13 12 13 13 14 14 14 13 11
18 17 17 16 16 15 15 14 14 13 12 12 11 11 11 11 11 12 12 13 14 15 16 16 16 17 17 16 15 13 11 10 10 10 11 11 11 11 11 9 10 11 10 10 10 9 9 11 13 13 11 11 11 11 12 11 10 9 10 11 10 10 10 10 9 8 8 9 10 11 11 11 11 11 10 10 11 11 12 12 12 13 14 14 14 14 12 11
18 18 17 17 16 16 15 15 14 13 12 11 11 11 11 12 12 12 11 12 13 13 14 15 15 17 17 16 16 14 12 11 11 12 12 12 12 12 11 9 10 10 9 10 10 9 10 11 11 11 10 10 10 11 11 10 10 10 11 11 11 11 9 9 9 8 7 8 9 10 10 10 10 10 10 10 10 10 11 12 13 14 14 14 14 13 12 12
19 19 18 18 17 16 16 15 13 12 12 12 12 12 12 12 12 11 11 11 12 11 12 14 14 15 17 16 15 15 14 13 12 12 13 13 12 11 11 10 9 9 10 11 11 10 11 10 9 9 9 10 10 10 10 10 11 11 12 12 12 11 11 11 10 8 7 6 8 9 8 9 9 10 11 11 10 10 11 12 13 14 14 13 13 13 13 12
20 19 19 18 18 17 17 15 12 11 12 13 13 12 12 12 11 10 10 10 11 11 11 12 12 14 16 16 15 15 14 14 14 13 13 14 13 11 11 11 10 10 11 10 10 11 11 10 9 8 8 10 10 11 11 11 11 11 12 13 13 12 12 11 9 8 7 7 8 9 8 9 10 11 12 12 11 10 11 13 13 14 14 14 13 13 13 12
20 20 20 19 18 18 16 14 12 12 13 13 12 12 12 12 11 10 10 10 10 10 9 10 11 12 15 16 15 14 12 14 15 14 13 14 14 12 11 11 10 11 12 10 10 11 11 10 9 9 8 9 10 11 12 11 10 10 11 12 12 11 11 10 9 8 9 9 9 9 9 10 10 10 11 11 11 11 12 13 14 15 15 15 14 14 13 13
21 21 20 19 19 17 15 14 14 14 13 12 12 12 13 12 10 10 9 9 9 10 9 10 11 11 14 16 16 14 12 13 14 14 14 14 15 13 12 12 11 11 12 10 10 11 11 9 8 8 8 8 10 11 12 11 10 11 11 10 10 11 11 11 9 9 10 11 9 8 9 9 9 10 10 9 10 11 12 14 15 15 16 16 15 15 14 14
22 21 21 20 19 18 16 16 16 15 14 14 13 13 13 11 10 10 8 7 9 9 9 10 11 11 12 15 17 15 12 11 12 14 15 15 15 13 13 13 12 12 12 11 12 12 11 10 10 9 8 8 11 12 12 12 11 12 11 10 10 10 11 10 9 9 10 10 10 9 8 9 10 11 9 7 9 11 13 14 15 16 17 17 17 16 16 15
22 22 21 21 20 19 17 17 16 15 15 14 14 14 13 11 10 9 7 8 9 8 8 9 10 11 11 14 17 16 13 11 11 13 14 16 16 13 13 14 12 12 12 12 14 14 12 12 12 10 9 10 12 12 13 12 11 12 11 9 8 8 9 9 9 10 10 10 12 12 10 9 10 11 9 8 9 11 12 13 14 16 17 17 17 17 16 16
23 23 22 21 20 19 17 17 18 17 16 15 15 15 13 11 9 8 8 10 9 9 8 9 10 10 10 12 14 16 15 12 11 12 13 15 15 13 13 13 12 12 13 12 14 15 13 12 12 11 11 11 11 11 12 11 10 10 9 8 8 9 9 10 10 10 10 11 13 13 12 11 10 11 11 10 10 10 11 11 12 14 16 17 18 18 17 17
24 23 23 22 20 19 18 18 18 16 15 15 15 15 13 12 10 8 9 10 10 9 9 9 10 9 10 12 14 15 15 14 12 12 13 14 14 14 14 14 13 12 13 13 14 15 13 13 13 13 12 10 9 9 10 10 10 9 9 9 9 10 10 10 11 11 10 12 13 13 13 12 11 11 12 12 12 12 11 12 12 13 15 17 18 18 17 17
24 24 23 23 22 21 20 20 18 16 16 15 15 14 13 13 13 12 11 9 9 10 10 10 11 10 11 12 13 15 15 15 15 14 14 13 14 15 15 15 15 13 13 15 15 14 14 15 14 13 13 12 10 10 10 10 10 10 10 10 10 10 10 11 12 11 12 13 13 12 13 13 14 14 13 14 14 13 13 13 13 13 14 16 17 17 17 16
25 25 24 23 22 22 22 22 20 19 17 16 14 14 13 13 14 15 13 11 10 10 10 11 11 11 12 11 12 14 15 16 17 15 14 14 14 15 15 15 15 13 13 14 14 14 15 15 14 13 14 13 12 12 12 12 12 12 12 12 11 10 10 11 12 12 12 13 13 13 13 13 14 15 15 16 15 15 14 14 14 14 14 14 15 16 16 16
25 24 23 22 22 23 23 22 21 20 18 17 15 14 14 14 14 14 14 14 14 12 11 12 12 12 12 12 13 13 13 15 17 16 15 14 15 16 15 15 15 14 13 13 13 13 13 14 15 15 14 13 13 14 14 13 12 13 13 13 12 12 11 12 12 12 12 13 13 13 13 13 14 15 15 16 15 15 14 13 12 12 12 13 14 15 16 16
25 23 22 21 21 22 23 23 22 20 19 17 15 15 16 16 15 14 14 15 15 14 13 13 12 12 12 13 13 13 13 14 14 15 16 16 16 16 16 16 16 14 14 14 13 12 13 14 15 15 14 13 13 14 14 13 12 13 13 12 13 13 12 11 11 12 12 11 12 13 14 14 15 15 15 15 14 13 13 12 11 11 11 11 12 13 15 16
23 21 20 19 19 20 21 22 22 21 20 18 17 18 19 17 15 14 14 14 14 14 14 13 12 12 13 14 14 13 13 13 14 14 16 17 17 17 16 16 16 16 15 15 14 12 12 14 14 13 13 14 14 14 15 15 14 13 13 14 14 13 11 10 10 10 9 10 11 13 13 13 13 14 15 14 13 13 13 12 11 11 11 10 11 12 14 15
21 19 18 18 19 19 20 21 22 22 21 19 20 21 19 18 17 16 14 13 13 13 12 12 13 13 13 14 15 15 13 13 13 14 16 16 16 17 17 16 16 17 17 15 15 14 12 13 15 14 13 13 13 12 13 14 14 13 13 15 13 11 11 10 10 9 9 10 12 12 12 13 12 12 14 14 13 13 12 12 12 11 11 12 12 13 13 14
20 18 17 17 19 19 20 21 22 22 20 20 21 21 19 18 18 17 15 14 14 13 12 13 14 13 13 13 15 16 15 14 13 14 16 16 15 16 17 17 16 17 18 16 15 15 13 13 14 15 14 14 12 11 12 13 13 13 13 13 12 11 12 11 10 10 10 11 12 11 12 13 13 13 13 13 13 12 12 12 11 11 12 13 13 13 12 12
19 17 16 18 18 18 19 21 22 22 21 21 22 20 19 19 18 18 18 16 16 15 14 15 14 14 14 13 14 15 16 17 15 14 15 16 15 15 15 16 16 16 17 17 16 15 13 13 14 14 14 13 12 13 14 14 13 12 12 12 12 12 12 12 12 11 11 11 11 11 11 13 14 13 12 13 13 12 12 12 11 11 11 12 13 13 12 12
17 16 16 17 17 16 17 19 21 21 21 22 21 20 19 19 18 19 19 18 18 17 16 16 15 15 15 14 14 14 15 16 16 15 16 16 15 15 15 16 15 15 15 15 15 15 13 14 14 13 12 12 13 14 15 15 14 12 12 13 13 11 11 12 11 11 11 11 11 11 11 13 13 12 11 11 12 12 11 11 11 10 10 11 12 12 12 12
16 15 16 17 15 14 15 17 19 20 21 21 20 20 19 18 18 18 19 19 19 19 18 17 16 16 16 15 14 14 14 14 15 16 16 16 16 15 16 16 15 15 13 13 14 15 15 15 14 13 11 12 13 14 14 15 14 13 13 14 14 13 12 11 11 12 11 10 11 11 10 12 12 12 12 11 11 12 11 10 10 10 10 10 10 10 10 11
15 14 15 16 14 14 14 17 19 19 20 20 20 20 19 19 18 18 19 19 19 19 18 18 18 18 17 16 16 15 14 14 15 15 16 17 17 16 16 16 15 14 13 13 15 16 15 14 13 13 12 13 13 13 13 13 12 12 12 13 13 13 13 12 12 13 11 10 10 9 9 11 11 11 12 11 11 11 11 10 10 10 10 10 9 9 9 10
14 14 15 14 13 14 14 16 18 18 19 20 19 19 19 18 18 18 18 18 18 19 18 18 18 18 17 17 16 15 14 15 15 15 15 15 16 17 16 15 15 14 13 13 14 15 15 14 13 13 12 13 13 12 12 12 11 11 11 12 12 13 13 13 13 13 12 11 10 9 9 11 11 10 10 10 9 9 10 10 10 10 10 10 9 9 9 10
14 13 13 12 12 14 14 16 17 17 18 18 17 18 18 18 18 17 17 17 17 17 17 17 17 17 17 16 15 15 15 15 15 15 15 14 14 16 15 13 13 14 14 14 15 15 15 14 14 13 12 12 13 13 13 12 12 12 12 12 12 11 11 12 13 11 12 13 11 10 10 12 11 10 9 8 7 7 8 9 9 10 10 10 10 10 10 11
13 12 12 10 9 11 13 16 17 17 18 17 16 16 17 17 16 16 16 16 16 16 16 17 17 17 16 15 15 15 14 14 15 14 14 14 14 15 14 13 14 15 15 15 15 15 14 14 15 15 15 15 15 15 15 14 13 13 13 12 11 11 11 12 12 11 13 14 12 11 11 12 11 10 9 8 8 7 8 8 9 10 10 11 11 11 11 11
11 10 11 10 8 8 11 14 15 16 16 16 15 15 16 16 16 14 14 14 15 15 15 16 16 16 15 14 15 15 14 14 14 14 14 15 15 15 15 14 14 14 15 14 14 15 14 13 14 15 16 17 17 17 16 15 14 14 14 13 12 12 11 11 11 13 14 14 13 13 12 11 11 11 10 10 9 9 9 9 9 10 10 11 12 12 12 12
9 8 8 9 9 8 8 9 11 13 15 15 15 14 15 16 16 14 13 14 14 14 14 14 14 14 15 15 15 15 15 14 13 14 15 15 16 16 15 14 13 14 15 14 15 16 16 14 13 13 13 15 16 15 15 14 14 14 14 14 13 12 11 10 11 13 14 13 14 15 13 11 12 12 12 12 11 11 11 10 10 11 12 12 13 12 12 12
9 8 7 6 7 8 7 6 7 9 10 12 14 14 13 13 14 14 14 14 13 13 14 14 13 13 15 15 15 14 15 14 13 14 15 15 15 15 14 14 13 14 15 15 14 15 16 15 15 13 12 12 12 12 12 13 13 13 13 14 14 13 12 11 13 14 13 14 15 15 12 12 13 13 13 13 13 12 11 12 12 12 13 13 13 13 13 13
10 9 7 5 4 7 7 5 5 5 7 9 11 11 11 12 12 13 13 13 13 13 13 14 13 13 13 14 14 14 14 14 14 15 15 15 15 15 14 15 15 14 15 15 15 15 15 15 15 14 13 13 13 13 12 11 12 12 13 14 14 14 13 12 13 14 13 14 14 13 11 12 14 15 15 14 13 12 11 11 11 12 13 13 13 13 14 14
10 9 8 5 2 4 6 5 3 3 5 7 9 9 9 10 11 12 11 11 12 13 13 13 13 13 12 12 12 14 15 15 15 15 16 15 15 15 14 15 15 15 14 15 16 15 15 16 16 15 14 15 16 15 14 13 13 14 15 15 14 13 13 13 14 15 14 14 14 13 12 13 15 15 15 14 13 11 10 10 11 12 13 13 13 13 14 14
10 10 8 4 2 3 5 5 4 3 3 4 7 8 7 8 9 10 10 9 10 11 12 13 14 14 13 12 11 13 15 16 16 17 16 16 16 15 15 15 15 15 14 15 16 16 15 16 16 14 14 15 16 16 15 14 14 15 16 16 15 15 15 15 15 16 16 16 16 14 14 16 17 16 15 14 12 11 11 12 13 13 13 12 12 13 14 14
11 10 8 4 2 2 5 5 4 4 4 3 4 5 6 6 6 8 9 8 7 8 10 12 13 13 13 12 13 14 16 16 17 18 17 17 17 16 16 16 16 15 15 15 15 15 15 16 16 15 15 15 14 13 13 12 12 14 15 16 15 15 15 15 15 16 17 17 17 17 18 18 18 17 16 15 14 13 14 14 14 14 14 13 14 14 15 16
Wind_Direction
286 286 286 286 285 284 282 281 279 277 275 273 272 271 269 268 266 265 264 264 265 265 265 265 265 266 266 267 268 269 270 268 266 264 260 256 252 249 247 246 243 235 236 238 237 236 236 237 236 234 232 233 236 236 237 238 238 240 239 239 241 238 237 235 234 230 229 239 243 248 249 240 243 239 232 234 239 238 242 251 252 258 259 252 254 235 223 233
285 285 284 284 284 284 283 281 279 277 275 274 273 271 270 268 267 265 264 265 265 265 265 265 266 266 266 267 268 270 270 267 266 262 257 254 251 249 245 243 241 234 234 236 235 234 234 235 234 232 232 233 237 236 237 238 236 237 237 239 239 235 237 236 233 229 230 238 245 250 247 245 243 233 232 238 247 247 244 253 251 251 253 250 247 232 230 236
284 283 283 283 283 284 283 281 279 277 275 273 272 271 270 268 267 266 265 264 264 265 265 265 266 266 266 267 268 270 269 266 263 257 255 255 251 248 243 239 237 234 234 236 234 234 233 233 231 230 231 233 237 236 237 238 237 237 236 239 239 236 239 242 239 236 237 241 246 248 246 251 248 238 236 233 239 246 243 245 246 244 244 245 243 236 237 242
284 282 282 282 282 283 283 281 279 277 275 273 272 271 270 269 267 266 265 264 264 264 265 265 265 265 266 267 268 268 267 264 257 252 254 256 252 246 241 236 235 235 236 237 234 233 232 231 231 230 231 234 238 238 237 238 237 237 235 235 237 235 239 244 242 244 246 241 241 244 246 252 250 244 236 227 237 252 249 246 248 244 238 239 238 239 244 247
286 283 281 281 281 282 282 282 280 277 275 273 272 271 270 269 268 267 266 264 264 263 264 265 265 265 266 267 268 265 263 259 252 252 255 255 251 245 239 236 235 235 235 235 234 232 232 231 231 230 231 234 237 238 238 238 236 238 237 235 236 234 239 245 241 244 246 241 241 243 246 249 250 250 239 232 243 253 253 251 253 247 239 240 237 240 248 249
288 286 283 281 280 280 281 281 281 278 276 274 272 271 270 269 268 267 266 265 264 263 263 264 264 265 266 266 265 261 257 254 252 255 255 253 250 243 237 236 234 234 234 234 234 232 231 230 230 230 232 234 234 235 238 239 236 238 241 240 240 236 239 245 240 240 242 242 243 242 246 249 250 253 247 244 249 254 257 253 251 247 243 243 238 240 247 249
290 287 285 282 280 279 279 280 280 279 276 274 272 271 270 269 268 268 267 266 265 264 263 263 264 264 265 265 260 258 256 254 254 256 256 252 249 241 236 236 234 234 233 233 233 231 229 228 228 228 230 233 233 234 237 239 237 236 241 244 243 238 238 244 243 244 244 243 244 244 249 250 251 253 251 253 255 256 257 251 246 245 244 241 237 239 243 246
293 289 286 284 282 279 278 279 280 279 277 274 273 271 270 270 269 268 267 267 265 265 263 262 262 263 264 262 257 259 256 253 254 255 255 251 248 241 237 238 235 233 233 231 230 228 227 225 226 226 229 233 231 234 236 239 241 237 239 243 243 240 241 246 248 249 248 246 246 247 247 248 249 249 250 256 258 256 253 247 243 242 242 238 235 237 239 243
297 292 288 285 283 281 279 278 278 279 278 275 273 271 270 269 269 269 267 267 266 265 264 262 262 261 260 258 256 258 254 250 253 253 252 251 249 242 238 239 235 233 232 230 229 227 226 225 226 226 228 232 230 234 236 236 241 237 236 241 243 245 246 247 249 249 248 247 244 243 245 248 247 245 251 255 251 250 246 239 237 236 235 233 233 234 236 239
301 296 290 287 284 282 280 278 277 278 279 277 274 272 270 269 268 268 267 267 266 264 263 262 261 259 258 256 253 253 251 250 252 251 250 250 249 242 239 239 235 232 230 229 226 223 224 224 224 225 227 230 230 233 234 233 238 236 235 240 241 245 248 245 247 248 248 247 242 238 244 249 247 246 251 249 243 241 236 233 234 232 230 228 230 233 235 235
305 300 294 289 285 283 282 279 277 277 278 277 275 272 271 269 268 268 267 266 265 264 262 260 260 257 255 254 248 247 249 249 250 251 250 250 249 242 238 237 233 230 227 226 223 221 222 221 222 225 227 230 231 233 234 234 237 236 236 242 244 246 248 242 244 248 247 247 241 235 243 250 248 249 248 241 236 235 231 231 231 229 229 225 224 228 231 234
307 304 299 293 288 285 283 281 278 277 277 277 276 274 271 269 268 268 266 265 265 263 260 258 257 254 254 253 246 244 247 247 247 250 250 248 248 242 237 235 231 228 223 221 220 219 219 220 221 226 229 230 232 233 236 237 238 239 237 243 248 251 250 243 242 244 242 245 241 235 246 252 249 251 246 233 230 232 229 226 225 225 227 221 219 222 227 232
310 307 303 298 291 287 285 283 279 277 277 277 276 274 272 269 268 267 266 265 263 262 259 256 254 254 253 251 246 245 247 246 245 248 248 246 245 240 234 231 229 226 220 215 216 218 219 221 223 230 232 230 232 234 237 241 240 241 240 242 247 252 251 245 243 242 240 245 241 235 248 251 251 253 244 228 225 226 225 223 222 222 220 216 215 218 223 228
310 309 306 302 296 290 287 285 281 277 277 277 276 274 272 270 268 266 265 264 262 260 257 253 252 251 249 248 248 246 244 242 242 243 243 241 241 237 230 226 225 222 216 213 216 220 221 224 227 233 235 230 233 237 240 245 242 241 243 245 246 245 247 249 247 243 242 248 241 237 249 248 251 253 239 228 225 220 220 221 219 216 213 212 213 216 222 226
310 309 307 305 300 294 290 287 283 278 277 277 275 274 272 270 268 266 264 262 260 258 253 251 250 249 250 250 248 244 239 237 240 240 238 235 231 229 224 218 218 215 211 212 217 222 223 224 227 231 235 232 233 236 238 244 244 242 242 246 248 241 245 254 250 238 239 250 244 240 249 249 249 248 233 227 226 220 218 217 215 211 208 210 214 217 221 226
310 309 308 305 303 298 293 290 286 281 278 277 276 274 271 269 267 266 263 260 258 254 250 248 247 245 245 245 241 238 236 236 240 239 232 228 224 220 214 210 211 210 210 214 218 224 226 227 229 229 231 230 229 229 235 242 245 245 239 240 244 240 245 253 247 237 237 247 247 242 245 248 249 244 231 224 223 221 217 213 212 209 207 211 214 216 220 224
311 309 308 306 304 300 296 292 288 283 279 278 276 274 271 268 265 264 263 260 256 251 247 246 244 242 240 239 236 234 236 238 239 235 228 225 221 214 207 208 211 210 212 218 220 226 229 228 229 229 230 231 230 228 232 239 241 242 240 239 241 238 241 247 246 245 242 245 248 244 240 243 247 235 221 217 216 217 214 211 211 207 207 211 212 215 219 222
310 309 308 307 304 301 298 294 291 285 280 278 276 274 270 265 263 264 263 259 255 250 247 244 240 239 237 234 232 232 238 241 237 229 224 221 217 212 211 214 214 213 216 220 222 224 227 230 228 229 233 236 234 227 227 233 230 231 235 236 241 241 240 241 244 248 250 249 246 241 237 241 242 227 214 214 214 214 215 213 212 210 208 210 212 215 219 220
309 308 307 307 305 302 299 296 293 287 282 277 274 272 269 265 265 264 261 258 252 248 248 241 232 231 233 233 233 237 243 243 235 227 219 216 213 213 218 220 219 217 216 221 225 223 224 229 229 228 232 233 231 224 224 227 224 224 227 227 232 240 242 241 245 250 250 246 240 232 230 230 227 222 217 216 217 215 215 214 213 210 208 210 213 216 218 220
308 307 306 306 305 302 299 296 293 289 283 276 271 269 266 266 266 263 261 258 253 252 253 244 233 233 236 236 236 239 245 241 233 225 218 214 209 210 218 223 223 220 218 220 225 228 225 227 231 229 229 230 229 226 223 223 224 227 227 227 231 235 245 247 249 256 248 235 235 225 219 222 219 220 220 218 220 217 212 213 210 205 207 211 213 216 219 221
306 305 303 303 302 302 299 295 293 289 281 273 269 267 263 264 265 265 264 261 256 254 253 247 236 234 234 234 234 236 240 238 231 224 218 214 207 209 219 221 219 224 227 222 225 234 229 228 234 231 228 226 225 222 219 221 225 229 227 230 236 234 243 246 245 258 248 227 232 222 211 223 223 220 221 217 217 214 208 208 205 202 207 213 215 217 220 222
304 303 301 300 299 299 298 294 291 287 278 270 267 264 262 263 265 269 268 265 259 251 248 246 239 236 233 232 234 231 230 230 231 227 218 213 212 215 218 216 215 222 229 224 227 239 234 232 235 228 219 215 216 215 215 219 222 225 226 229 236 236 246 249 241 253 246 223 228 218 208 223 228 222 223 218 212 208 205 206 207 206 211 216 217 219 221 224
302 301 300 298 296 296 295 293 289 283 274 267 263 261 262 266 270 273 268 266 263 251 245 243 238 234 231 230 228 222 221 223 226 229 219 211 216 217 214 213 214 217 222 218 218 225 227 231 228 215 204 205 216 217 212 218 224 224 224 225 233 236 240 242 239 250 249 223 216 209 206 222 230 224 224 223 215 209 207 210 214 215 218 221 221 222 224 225
299 299 298 296 294 292 292 291 285 277 271 266 263 260 264 271 275 274 266 263 261 252 246 240 235 231 226 224 221 215 219 222 224 228 220 212 215 218 215 212 211 215 220 215 211 215 220 221 210 199 202 208 217 221 213 217 230 232 227 223 229 234 231 232 238 247 247 229 211 207 213 224 226 221 224 229 223 216 213 212 216 221 224 227 225 224 226 226
297 297 296 295 293 290 288 284 275 272 272 267 262 262 267 273 274 270 265 266 262 254 249 239 234 230 222 218 215 214 220 226 227 227 220 214 212 216 219 215 213 219 219 212 209 216 222 219 207 205 216 218 219 223 218 215 227 239 233 224 223 226 230 233 238 238 235 232 224 216 218 229 232 225 226 232 229 224 222 217 219 222 226 227 226 224 224 226
295 294 294 293 291 290 284 273 266 271 273 265 260 264 271 273 271 266 264 269 263 252 246 237 233 229 220 216 214 214 224 232 230 224 219 217 214 215 219 218 219 220 215 213 215 218 220 219 213 212 221 224 223 227 224 214 218 234 233 222 219 221 226 230 229 227 225 227 229 223 216 226 236 230 229 233 228 226 227 225 225 224 225 227 224 223 223 225
293 292 291 290 289 288 279 268 267 268 265 261 261 267 272 270 265 264 266 267 260 248 241 237 233 228 224 218 211 211 226 231 226 221 218 216 216 216 219 222 222 221 218 217 221 220 217 217 219 220 225 226 222 226 225 211 208 227 227 215 215 220 223 225 223 224 226 225 233 235 216 215 228 229 233 233 224 227 231 229 229 225 224 225 224 225 226 226
292 290 289 286 285 282 273 269 268 261 255 257 263 268 270 266 260 261 261 256 252 245 239 236 230 228 227 219 212 214 225 225 220 223 220 214 216 218 221 223 218 219 223 218 221 227 221 220 226 226 229 228 222 223 220 208 213 228 222 213 220 222 223 226 224 228 232 225 231 240 225 216 228 232 236 232 222 230 233 229 228 226 223 224 226 228 230 229
290 288 286 283 281 277 270 266 263 257 254 256 261 265 264 259 257 259 253 247 248 245 238 234 228 230 227 217 217 221 225 225 222 222 218 215 219 221 220 221 214 218 229 222 221 231 231 227 229 226 228 230 225 224 216 210 220 226 218 222 234 232 228 228 226 229 234 229 229 237 231 222 232 236 234 231 227 234 237 233 230 227 226 226 227 229 232 232
290 287 284 281 276 271 267 263 260 257 254 254 257 259 256 253 254 255 249 244 246 244 238 232 229 230 224 217 222 226 225 227 222 215 217 219 222 224 221 220 217 221 234 235 228 234 239 238 235 230 229 228 224 224 219 216 220 221 224 236 243 243 236 232 232 227 229 236 234 235 232 223 231 237 231 230 234 236 242 244 237 231 228 227 227 229 231 233
289 286 282 277 270 266 263 261 259 253 249 253 255 251 248 248 247 241 241 244 246 245 240 234 231 229 224 221 225 227 224 226 222 214 220 224 222 225 225 224 226 230 240 244 238 240 245 243 240 237 233 228 224 225 226 227 227 226 234 237 236 241 237 233 238 229 225 236 236 235 234 225 226 232 231 237 244 244 244 248 245 239 233 228 226 228 230 232
289 284 280 274 266 262 258 256 255 250 248 253 251 244 241 243 242 237 241 251 248 241 236 233 233 231 231 228 226 226 224 226 226 220 222 225 223 224 225 225 227 233 242 241 238 242 243 239 241 243 237 228 224 226 230 237 236 231 232 230 228 236 235 232 237 233 231 235 234 236 237 232 232 233 233 242 250 250 249 250 251 250 243 232 227 228 229 231
289 284 278 271 264 259 255 253 252 249 249 249 245 241 237 238 241 238 240 245 242 240 237 235 239 238 234 230 228 227 225 227 227 225 227 226 224 227 229 228 225 228 236 236 234 238 241 243 242 240 238 232 223 222 227 234 234 228 226 224 223 226 229 233 236 236 237 236 235 239 240 239 243 242 240 245 252 256 257 257 255 251 245 235 227 226 229 231
290 284 277 269 263 258 254 251 248 245 244 242 240 238 234 236 242 240 240 242 242 245 244 241 245 244 236 231 230 226 225 230 227 224 228 227 225 229 232 232 228 226 230 233 233 231 232 240 237 231 234 234 227 225 225 228 231 232 228 224 224 223 223 230 234 232 234 237 239 241 241 241 243 247 248 249 254 259 260 258 254 249 243 236 228 226 229 231
291 283 276 268 262 257 252 247 243 239 237 236 237 235 231 235 240 239 239 242 243 246 247 245 244 244 242 237 234 227 224 230 229 224 229 229 227 228 228 230 229 226 226 229 235 233 228 235 237 234 233 229 229 230 227 227 234 237 230 225 230 228 223 228 232 229 229 234 240 241 242 244 244 251 256 255 257 262 261 255 249 244 240 233 225 223 228 233
292 284 275 266 262 258 252 244 238 234 232 232 234 235 234 236 236 235 238 240 242 244 245 247 242 238 242 238 236 234 228 229 230 228 231 231 229 228 226 228 227 223 224 226 232 234 231 237 240 237 234 230 230 231 229 229 233 235 231 229 233 230 221 223 231 236 231 230 240 243 245 250 251 254 258 259 261 262 262 256 246 234 224 217 215 217 224 233
294 286 273 267 266 261 251 241 233 230 229 230 233 236 237 237 233 232 237 239 240 240 239 242 240 236 238 237 234 233 231 232 233 230 230 231 231 229 228 230 227 224 225 226 233 235 231 237 240 233 231 235 234 230 231 232 229 229 231 229 230 230 227 224 229 242 239 234 244 249 247 248 249 254 258 260 259 257 258 255 245 233 218 210 213 215 221 233
293 283 272 273 273 262 249 238 229 226 229 232 235 238 238 237 233 232 236 238 238 240 239 239 240 237 237 238 237 233 228 232 237 233 229 230 231 229 228 231 229 230 229 226 233 239 232 236 242 233 229 238 240 228 231 238 233 229 231 229 226 227 230 228 227 233 235 237 246 253 253 246 244 252 255 253 250 248 249 245 238 233 222 215 217 217 222 233
291 281 274 281 279 261 243 232 226 226 230 232 235 238 238 237 237 236 237 238 237 239 240 239 239 238 237 236 238 236 229 230 235 235 231 229 229 229 229 229 229 235 233 224 228 237 232 231 237 234 230 235 237 228 227 234 236 234 234 233 232 229 226 226 228 229 228 233 242 250 257 253 246 248 247 245 246 244 240 236 233 232 228 224 224 223 226 232
290 279 275 284 279 254 235 228 226 228 231 234 234 237 239 238 239 239 237 238 238 238 238 237 236 237 238 238 237 234 231 230 230 231 232 230 227 229 232 229 228 235 234 226 228 234 231 228 231 236 235 229 230 230 227 226 228 231 232 231 232 232 228 226 232 233 228 230 237 242 253 255 249 244 240 240 244 241 233 231 235 239 236 235 234 229 228 230
292 279 277 285 273 245 233 231 232 232 233 235 235 236 239 238 237 239 238 237 237 238 237 235 234 235 236 239 239 233 232 234 230 227 230 230 226 227 232 230 228 232 233 229 229 230 228 226 226 232 234 228 229 234 231 227 225 226 228 228 228 229 226 224 234 239 234 233 234 234 246 252 247 244 244 242 241 238 230 227 235 240 235 234 235 229 225 223
295 282 281 285 263 240 239 237 236 235 233 233 235 235 237 237 236 237 238 237 236 237 237 235 236 237 235 236 238 234 232 233 233 230 230 230 227 227 231 233 232 232 231 229 229 227 225 224 223 227 228 226 231 236 233 230 226 224 229 231 229 231 229 225 232 236 234 238 238 235 244 248 245 247 249 248 243 236 228 224 228 231 230 230 229 223 220 219
298 286 285 285 256 239 242 239 237 237 234 235 236 234 235 235 234 235 237 237 237 236 237 236 236 236 236 236 235 234 233 232 232 232 230 229 227 225 228 235 235 232 229 229 228 226 225 223 219 222 228 230 234 238 236 233 230 230 236 237 233 236 234 230 233 234 230 234 238 239 245 246 247 251 252 249 244 234 226 222 220 224 230 229 224 221 221 224
299 288 288 287 258 241 240 236 236 237 236 237 237 235 236 234 233 234 233 235 236 234 234 236 235 235 236 235 233 234 235 232 232 234 230 227 229 227 227 232 235 233 230 229 227 225 226 226 218 216 227 233 234 238 241 239 235 232 235 239 237 236 235 235 238 237 233 233 231 233 243 244 245 251 254 254 249 238 231 224 218 221 225 223 222 225 228 230
302 290 285 287 267 244 238 234 233 234 234 235 234 236 236 233 233 232 227 230 234 231 231 234 235 234 234 234 234 237 237 232 232 235 232 232 236 237 236 233 232 233 232 230 229 224 224 226 222 218 224 228 230 235 237 234 234 232 231 236 237 234 235 237 236 234 235 235 231 232 238 240 244 252 259 260 255 246 238 228 220 222 224 225 228 230 233 236
311 296 285 281 270 249 240 238 234 232 232 230 229 233 232 231 235 232 225 229 233 229 229 234 236 232 231 232 233 237 239 236 234 233 234 237 237 240 246 239 230 231 230 229 231 227 223 226 228 225 226 228 230 235 235 230 230 232 231 234 237 238 240 238 235 236 235 232 236 240 237 234 242 253 258 259 256 249 244 239 232 232 234 237 239 239 241 244
327 310 292 275 263 250 242 244 238 232 231 227 224 230 232 230 232 231 227 228 229 228 227 232 235 231 230 230 228 232 238 237 236 235 236 238 236 240 247 242 236 241 238 234 234 229 224 229 233 230 233 235 234 236 236 230 230 233 235 237 240 243 245 240 239 242 236 230 239 246 241 234 241 250 253 256 255 250 248 248 245 244 245 246 244 244 246 247
343 330 310 281 256 238 230 243 242 231 229 225 221 225 230 227 225 226 228 226 226 228 227 228 235 234 232 230 225 229 237 235 235 237 235 237 239 242 247 244 245 251 245 239 238 231 226 232 236 233 238 243 238 234 231 228 230 235 239 242 242 242 245 243 243 246 240 234 239 242 239 238 244 248 250 253 253 250 248 249 247 246 248 248 247 247 249 250
354 347 330 310 256 228 220 230 245 229 221 219 216 220 224 223 221 222 225 225 227 231 226 223 232 236 234 230 225 228 235 232 232 236 235 236 240 241 243 245 248 252 246 239 239 236 231 233 236 236 238 242 239 234 229 226 231 237 243 246 243 240 243 244 244 245 241 237 239 236 234 241 244 246 249 251 250 246 245 248 249 249 249 248 248 249 251 253
0 355 341 330 286 235 218 218 227 215 214 216 212 214 219 219 221 222 223 222 225 231 228 221 226 231 231 230 227 227 231 230 229 233 234 235 240 240 240 242 245 250 248 241 240 241 236 233 236 237 237 242 244 242 240 237 237 241 246 249 245 241 243 245 244 244 241 239 241 239 236 242 245 246 249 250 248 246 248 252 253 252 251 248 248 251 252 254
3 359 354 347 302 247 218 213 215 196 191 205 204 207 213 216 220 219 217 218 219 225 230 228 229 232 233 234 233 232 234 233 231 234 235 234 238 240 241 242 244 247 249 244 242 244 240 235 237 236 234 239 244 245 245 243 241 243 246 250 251 246 242 242 243 244 241 238 240 241 239 240 244 247 248 249 250 251 254 255 254 253 253 250 250 252 254 256
5 3 3 6 342 255 215 208 208 190 177 181 189 198 209 216 220 213 210 220 225 224 230 231 229 230 233 238 242 245 246 241 237 239 238 236 239 241 242 245 245 243 244 244 242 243 239 234 235 235 233 235 239 238 235 232 233 240 244 247 249 245 239 238 243 247 246 241 240 242 241 242 245 246 246 248 251 252 255 257 256 256 256 255 254 255 257 259